{"data":{"norad_id":24920,"epoch":"2026-09-19T10:48:19.224000Z","epoch_age_seconds":101831,"freshness":"FRESH","line1":"1 24920U 97047A   26262.45022250  .00000087  00000+0  58358-4 0  9999","line2":"2 24920  69.9536 161.1020 0020560 156.5516 203.6548 14.27975585512144","mean_motion":14.27975585,"eccentricity":0.002056,"inclination_deg":69.9536,"raan_deg":161.102,"arg_perigee_deg":156.5516,"mean_anomaly_deg":203.6548,"bstar":5.8358e-5,"rev_number":51214,"period_min":100.84206026534,"perigee_km":783.75044281826,"apogee_km":813.26079727189,"semimajor_km":7176.6426200451,"source":"CELESTRAK","updated_at":"2026-09-20T09:00:13.524245Z"}}